timestamp,gas_concentrations,,corrected_fluxes_and_quality_flags,,,,,,,,,,storage_terms,,,turbulence,,,footprint,,
ISOdate,CO2_1_1_1,H2O_1_1_1,Tau_1_1_1,QcTau_1_1_1,H_1_1_1,QcH_1_1_1,LE_1_1_1, QcLE_1_1_1,Fc_1_1_1, QcFc_1_1_1,E_1_1_1, QcE_1_1_1,Sa_1_1_1,Sw_1_1_1,Sc_1_1_1,ustar_1_1_1,MO_length_1_1_1,ZL_1_1_1,Fetchmax_1_1_1,Fetch70_1_1_1,Fetch90_1_1_1
yyyymmddHHMM,[µmol+1mol_a-1],[mmol+1mol_a-1],[kg+1m-1s-2],[#],[W+1m-2],[#],[W+1m-2],[#],[µmol+1s-1m-2],[#],[mmol+1s-1m-2],[#],[W+1m-2],[W+1m-2],[µmol+1s-1m-2],[m+1s-1],[m],[#],[m],[m],[m]
201305070030,393.50044144633540,8.3038705124558820,7.49475674501849792E-002,0,-48.395650486871283,0,6.6896998591976748,0,0.73928214437258877,0,0.15047540731723374,0,-9999.,-9999.,-9999.,0.25526397934810169,28.909940698096726,0.74714784874747353,116.24679633048430,212.53621870624698,318.41798479175390
201305070100,394.10335929208003,8.4019592716423990,0.12356358804008330,0,-40.994204409092923,0,0.75301751033678810,1,0.30088999944305050,0,1.69305956698161952E-002,1,-10.397974912699354,3.3843368806674352,0.46771322224668394,0.32752122718479854,72.085913503817693,0.29964245370707632,109.42927275063504,200.07161126465795,299.74373149539366
201305070130,394.86476651169488,8.4992255985051202,0.12312737023559828,0,-52.576007394914420,0,2.1220014829881064,0,0.78400117759717824,0,4.76641510477371216E-002,0,-22.923311009120617,3.3704663147083989,0.59263956918491922,0.32640247137264317,55.624682627944836,0.38831682230845754,114.06627181897169,208.54952445657804,312.44519033494191
201305070200,395.25011825857086,8.3653297714403188,0.23180473323769485,0,-82.613338613516646,0,18.893679442703359,0,2.2082014590278973,0,0.42427679425144438,0,-6.1864078850159112,-4.6451713013524216,0.30020972741348018,0.44764049789816063,91.307431251641759,0.23656343962268264,115.42371981488785,211.03137232894591,316.16345069964393
201305070230,396.23454439788111,8.0766909657414843,0.30477056875926350,0,-97.011294873263338,0,19.199713736763897,0,3.7971190597641913,0,0.43107110831106699,0,-4.2876699496600823,-10.020255255130618,0.76729322848282522,0.51312781722781686,117.09695592768004,0.18446252363161622,112.71283717028069,206.07501426292924,308.73792315006114
201305070300,396.03667592814435,7.6058680552734357,0.31150256649517422,0,-96.933961829759880,0,34.951365557438479,0,3.8849472162365375,0,0.78451109436680044,0,-6.5129388035527578,-16.364999135857669,-0.15437249926638275,0.51846987898807240,120.87445656114220,0.17869780443706917,114.46889717245652,209.28565201351867,313.54804355524254
201305070330,397.18395859654811,7.4325134585558583,0.23640182933864984,0,-58.736179979925723,0,11.027846448902363,0,1.6076072710949081,0,0.24738938781326542,0,-13.396195694023346,-6.0422832620730871,0.89707036017616792,0.45115158833991081,131.44114522873588,0.16433210439859872,116.36082819712290,212.74470532706087,318.73033574096951
201305070400,397.57705547453088,7.2395611936602711,0.14432435846691619,0,-51.897354672230705,0,12.781691460660699,0,2.0069970162919417,0,0.28673302368109849,0,-5.31949129286183320E-002,-6.7262537864209664,0.30740600580304528,0.35247041132960127,70.944130620925691,0.30446493333486369,115.52374961746885,211.21425871093325,316.43744782612310
201305070430,397.30797794276339,7.0404044282376317,0.18182700106935926,0,-52.855462198091274,0,9.1585697075175716,0,1.6020968317617932,0,0.20546348695514835,0,0.96503049499283067,-6.9419246205371747,-0.21041139890549598,0.39561805265982664,98.503017605318135,0.21928262224967437,123.10933407311208,225.08312639392602,337.21553885382536
201305070500,397.41658984300994,7.0056056092214432,5.06686522148079646E-002,0,-20.419066644261797,0,1.2959898132462024,0,0.45258975781033939,0,2.90690370309139266E-002,0,-4.2741855605602952,-1.2142582999463782,8.50066780227869689E-002,0.20874775911893848,37.463322069951360,0.57656392456783656,112.40921120956787,205.51988917021274,307.90624460413562
201305070530,399.63064268465450,7.2479889498704466,4.17684244244734409E-002,0,-13.157481068895809,0,2.5573342187803170,0,0.11374532263771708,0,5.73388060120873302E-002,0,-9.2252605995473669,8.4746311226585629,1.7356700677197143,0.18938447250469020,43.422261530525162,0.49744069605438546,123.71717320879341,1113.0000000000000,5392.0000000000000
201305070600,398.28669879257683,7.3044706886212873,6.70295262551586363E-002,1,-8.4842305810457184,1,13.204951551432057,0,0.15966661814297711,2,0.29628530653700386,0,17.106537787152611,1.9685919902221161,-1.0509984997943791,0.24020783252524230,137.42787693407448,0.15717335144718664,107.10336536341373,195.81911075070349,293.37271081843886
201305070630,399.08399862628096,7.3947905660089317,1.54814481562252602E-002,1,7.5088711612667192,2,7.9856274830228129,0,0.99569464742695046,1,0.17933226914104908,0,20.534913729157569,3.1360112243702489,0.62167777154586845,0.11561281186677765,-17.316271471329131,-1.2473816915935696,33.909573748308290,111.00000000000000,258.00000000000000
201305070700,398.96012199717546,7.4649354933881984,6.72653836855856193E-003,1,22.116413140888994,1,5.0751999173462847,1,0.48516648048111577,1,0.11406949580323426,1,19.959579522079160,2.4260833960133223,-9.62975420880421706E-002,7.63239224285052614E-002,-1.6916316122955646,-12.768737497574037,37.560703210786308,108.00000000000000,231.00000000000000
201305070730,397.78751414195301,7.3829325843825186,5.51792661282822020E-002,1,7.8830698598500204,2,21.628941378271644,1,2.7217063056895245,1,0.48664700017149842,1,25.033040494664679,-2.8225701530235012,-0.90812801192741022,0.21900894478103836,-112.14156700700596,-0.19261368087223676,101.70340438063943,185.94625984496932,278.58138109266486
201305070800,397.19207008180842,7.3151697056220515,0.12389178968935687,1,168.49633005683145,1,30.400377848999742,1,0.88532927958583585,1,0.68503696749483556,1,35.295217831068030,-2.3167321450154703,-0.45873298720826849,0.32902372204344460,-17.792794720806100,-1.2139745519989575,102.18564249765606,186.82794492483467,279.90230600636022
201305070830,396.74820426206065,7.4323188869727534,0.36357789082748815,1,143.59699204406101,0,58.456027405162970,0,1.3063922062535491,0,1.3190873736384190,0,32.557680471746586,3.9795771323705651,-0.34024647694063997,0.56507079452755571,-105.76546864507168,-0.20422544594857700,124.70279659170502,227.99648408671831,341.58027956090751
201305070900,395.92184224195262,7.5425853088645587,0.57017381592099858,1,290.28259482065016,1,70.848543008919208,0,-0.34722207890600920,1,1.5999930797389186,0,18.251446034353474,3.7316588821729417,-0.63156228095408640,0.70870401293764496,-103.20919630815708,-0.20928367599634976,124.63894345520663,227.87974018828589,341.40537592753219
201305070930,394.56906679824101,7.2034340649606259,0.28770285798437101,1,205.47668392920360,0,42.263111187192727,0,-3.35296954130495095E-002,0,0.95513307867971464,0,16.718373258775376,-11.437291708665764,-1.0309982223924268,0.50409482041009357,-52.460972425038428,-0.41173464771100610,107.67871255147412,196.87102890805198,294.94867590273213
201305071000,393.93707691837039,7.1123264380081981,0.36021248126757505,1,236.97976705607911,0,63.558179734073526,0,0.93138083353963630,0,1.4372716807623342,0,14.011187627595389,-3.0633267742632611,-0.48052516176853916,0.56470953687209546,-63.938788383188850,-0.33782310466300919,111.72907149548244,204.27637685342853,306.04323655598068
201305071030,393.67394513251151,7.0622756822840111,0.16422417900752956,1,186.91147137064118,0,50.981040922864842,0,1.3084268971515618,0,1.1532396976376305,0,7.5722976347330277,-1.6801547055624539,-0.19981258184904632,0.38153854435686563,-25.000268635025225,-0.86399071607328781,85.577843692849214,156.46359192388977,234.41097210138685
201305071100,393.40638444969125,7.0089635605786613,0.54714859313069608,1,299.51773929314180,0,109.40872056263109,0,1.5742234693132975,0,2.4766729132547356,0,16.090009938243206,-1.7835296838159320,-0.20262516692407609,0.69736048845269838,-95.246283953099606,-0.22678050107063596,125.83150127390024,230.06011622766619,344.67197655105821
201305071130,393.39727929205014,6.9392220185156779,0.32341723901142272,1,320.53371577456471,0,98.470821402808340,0,0.90974925124931971,0,2.2303867968601829,0,13.423254738690659,-2.3262885047071475,-6.87910792348316816E-003,0.53677681976014624,-40.580544935937660,-0.53227476452321598,96.934717941223198,177.22758013918286,265.51921014194170
201305071200,393.20315317625585,6.7426280125715721,0.30284774769049944,0,104.03120399126550,0,67.567849709366044,0,0.60720124925913321,0,1.5301569887572135,0,-4.0253001773404344,-6.5610134967322340,-0.14671702628308325,0.51931660773543487,-113.19922203669543,-0.19081403221126378,100.42114821534071,183.60188662017450,275.06908280118796
201305071230,393.06694083131151,6.4147814595890686,0.27006165861775228,1,123.65920983129401,0,73.251993394032610,0,0.78271501909208840,0,1.6592767205138284,0,5.4217683625665174,-10.926139441826630,-0.10282813500217843,0.49065366473719768,-80.295429574010839,-0.26900659370768543,112.61992621952477,205.90514341251949,308.48342566162557
201305071300,393.29518199466850,6.6038499905665988,0.24089134349217417,1,100.94426619894230,1,72.885365662451520,1,1.3168281502967814,1,1.6516052479417407,1,8.7097994147339790,6.2887002752937988,0.17202894899043572,0.46378180249386453,-83.060658923424469,-0.26005091074359932,89.741157708983479,164.07545776628504,245.81493419685748
201305071330,392.95558173275856,6.3560781655885519,0.50573505332389856,0,183.94189012644372,0,118.54707711099422,0,1.1576286727328364,0,2.6878226339457636,0,12.717180193935322,-8.2181794266201020,-0.25538857922028840,0.67271528423614335,-139.07613417930074,-0.15531061549462322,108.34188174783804,198.08351370597228,296.76519907367469
201305071400,392.25576440179043,5.8619504068728263,0.31917421801908213,1,260.46611121791000,0,66.090901474349039,1,-6.7781735827055787,0,1.4993818138772141,1,13.561034578845485,-16.340583417575957,-0.52502932744444397,0.53500802291100191,-49.391648547070801,-0.43732089605016838,85.219498089274381,155.80842187208651,233.42940797617095
201305071430,392.57379030907828,5.7162586189352780,0.46401638436722947,0,165.35395386963728,0,53.887447373616737,0,-2.1642398717576974,1,1.2222988192753044,0,-4.2013572306127296,-4.8210737465933216,0.23870470681824543,0.64491318458493907,-136.25171197530170,-0.15853011816772933,115.20206088410424,210.62610910898340,315.55629254751256
201305071500,392.74164749360926,5.8458810829457404,0.57452169784797424,0,217.63237826507464,0,69.562027478030302,0,-2.6280807073095716,1,1.5783722033352299,0,7.6557758307475359,4.2820113242031601,0.12581854700870507,0.71811724766249541,-142.91296134863433,-0.15114094478321724,113.42521374416916,207.37746584085249,310.68923295154195
201305071530,391.24569828052643,5.8965518991157646,0.29787816261439631,1,172.75854521957095,0,60.758775464096281,0,0.30740096825240215,0,1.3789859727954423,0,5.8939569561993972,1.6716314202462479,-1.1200832729227033,0.51737004209034620,-67.317223920588589,-0.32086884666368076,98.184211842716394,179.51205349675305,268.94176751713121
201305071600,393.17013467117334,5.7966083355755282,0.49151276148859324,0,196.00285784879605,0,64.927352743883105,0,2.9746751819936668,0,1.4734392314139633,0,-2.4014101088298028,-3.2977858873698231,1.4410389469311591,0.66454098531624717,-125.70978674682010,-0.17182433093695773,121.87648101319940,222.82907780208919,333.83856332182268
201305071630,393.45983825150176,5.8549016383877213,0.10349875469191991,1,20.892721552266622,1,23.308773336666295,0,0.76634678639795784,1,0.52866691792618359,0,-12.570819565894451,1.9284339880153465,0.21737154550558924,0.30464102978004043,-113.62071031418969,-0.19010618698185039,99.858061271304464,182.57238409910644,273.52670042470652
201305071700,394.58926174680357,6.5715149949541445,0.21643302789603069,0,-85.511622472652036,2,209.61141287253145,1,7.4531265957189525,2,4.7508687969936600,1,-15.886353210513642,23.783310214966782,0.84957618845691796,0.44004109661179264,83.676957293326822,0.25813558115266921,109.05211116655246,199.38203959943738,298.71062748448384
201305071730,396.21130166033237,8.2601431046941958,0.35597613853499138,0,20.625982728800061,1,10.616355255876474,1,0.75817541461111260,2,0.24027594446882461,1,-32.715012131781393,56.411489709133086,1.2263937850755118,0.56307923509819646,-727.06092814159672,-2.97086518666470727E-002,128.52694345979984,234.98824421068375,352.05521029211371
201305071800,396.12211358889141,8.3238210466977414,0.23472173388512088,0,21.244496126537108,0,16.023368895359226,0,0.57864287029541484,1,0.36262256071119109,0,-1.7792253965062701,2.1280357191181856,-6.74524387796486824E-002,0.45717210761957100,-377.81178797599625,-5.71713236257528484E-002,115.03732888005713,210.32492646700732,315.10506606716928
201305071830,396.12136914317182,8.3759918981575971,0.17482846774764174,1,-5.7440668594891964,1,11.863678733390470,1,1.5305802894627192,1,0.26839389970700012,1,-7.7731476097759282,1.7461560688976825,-5.63691431343584393E-004,0.39432534344732489,896.65317924427302,2.40895816799591884E-002,139.40866615954468,254.88350385326893,381.86193462767977
201305071900,396.12600579603333,8.4241979305497559,0.12249667325623523,0,-12.380105580840560,0,8.1024873480528168,0,1.2736232907601297,0,0.18321571068200856,0,-11.015719201113303,1.6169500933164800,3.51677156833854953E-003,0.32979885374329554,243.38607861234209,8.87478861697912486E-002,126.99948164970647,232.19555686287498,347.87125575083269
201305071930,396.14073681622375,8.4507707282562521,5.18213834507443502E-002,0,-16.451944789931048,1,3.5932992906811871,1,0.72877213428209398,1,8.11971462639076297E-002,1,-15.707805017567372,0.89418910681361174,1.12013996506681521E-002,0.21423663578049065,50.207046852603092,0.43021849230473319,116.75354964042170,213.46272537749124,319.80606061689815
201305072000,396.26191053907547,8.5183060373174282,6.26533847185525242E-003,1,-5.2508074345039173,0,0.63009897200168108,0,0.21640863729465959,0,1.42296656350609698E-002,0,-13.868647051428111,2.2790705650286216,9.23466734388734417E-002,7.44098453693716883E-002,6.5916693389547465,3.2768633997386094,960.49313967989247,8508.0000000000000,-9999.
201305072030,396.28961073730193,8.5394506657843756,2.52161588147028397E-003,1,1.1260030131931156,2,9.54441504486170794E-002,2,4.01448828490419060E-002,2,2.15454784877769281E-003,2,-9.5209449927875038,0.71504609060323143,2.11457786497369522E-002,4.71666835238925136E-002,-7.8299322083896330,-2.7586445738132936,401.18660790021283,1134.0000000000000,2392.0000000000000
201305072100,396.38940279718315,8.2654403643046432,1.39651004812996419E-002,1,-11.127263967925044,0,9.7170246585745907,0,0.93098270475453493,0,0.21921564932365883,0,-14.316906184557496,-9.2930972448826950,7.63533027884424481E-002,0.11086636762285410,10.289617094959921,2.0992034786775644,1032.0213292814910,-9999.,-9999.
201305072130,395.92505713604208,7.8988571093879241,3.30940044623503384E-003,0,-2.2160188615701961,1,0.94738819074562219,1,0.17872313681885374,1,2.13603585412009238E-002,1,-13.772548348473446,-12.466656348163660,-0.35604043922169293,5.39087431554449853E-002,5.9396701038601760,3.6365656042011860,3195.8380702863792,-9999.,-9999.
201305072200,395.51989786471370,7.6344743814325513,6.82167944689473886E-003,0,-3.7519689497310713,0,4.1810543103382898,1,0.30622117941016030,0,9.42271700173414328E-002,1,-10.187608859407582,-9.0084732791139110,-0.31112451716261552,7.73362605469367220E-002,10.356236831018446,2.0856996950190285,1187.6852950428020,-9999.,-9999.
201305072230,397.26672476343930,7.8948310182671237,3.52451720034073698E-002,0,-26.818123976293382,0,12.273689537263273,1,2.1219524533208092,1,0.27629803703053535,1,-26.243348432301854,8.9172432978954337,1.3468353289493979,0.17544083486399875,16.915385581989529,1.2769439925152144,368.28811801561977,3476.0000000000000,-9999.
201305072300,395.93401117297924,7.6723021462866425,0.12454383212831792,0,-63.632592399863000,0,13.018388029426436,0,2.9262902187542887,0,0.29304459353778983,0,-1.4089688764135269,-7.6230957917265574,-1.0276810264954763,0.32975790342209610,47.334842884495657,0.45632347513452920,114.03048006025493,208.48408570644787,312.34715116274538
201305072330,396.05340266003651,7.6961467856977217,0.14373653836275435,1,-52.945941781639704,0,5.5837365225035374,0,2.8240150350342370,0,0.12566893756036787,0,-3.9592708644392238,0.81742317142242071,9.21154701308275758E-002,0.35416105731788361,70.473324816305848,0.30649894915987103,120.10388690298194,219.58821042871637,328.98315343315323
201305080000,396.45196309743392,7.7897276103999609,0.15972258654666552,0,-69.598175796479822,0,8.6446452041585413,0,3.2367902579655743,0,0.19457327035789679,0,1.7766427857454081,3.2068094240271017,0.30740892682817145,0.37340192305009029,62.832103431458698,0.34377330728013383,116.17779597891442,212.41006405704380,318.22898213886066
